[[{"header":{"parameterUnit":"m.s-1","parameterCategory":1,"la1":30.2991,"la2":30.254,"lo1":-89.0895,"lo2":-89.0444,"dy":0.0017,"dx":0.0017,"nx":28,"ny":28,"refTime":"2024-03-13T09:00:00:Z","depth":0,"parameterNumber":2,"parameterNumberName":"U-component_of_WINDS"},"data":[0,0,0,0,0,0,0,0,0,0,0,0,0,0,0,0,0,0,0,0,0,0,0,0,0,0,0,0,0,0,0,0,0,0,0,0,0,0,0,0,0,0,0,0,0,0,0,0,0,0,0,0,0,0,0,0,0,0,-2.9426,-2.9426,0,-2.9483,-2.9484,-2.9485,-2.9477,-2.9476,-2.9475,-2.9474,-2.9535,-2.9537,-2.954,0,0,0,0,0,0,0,0,0,0,0,0,0,-2.9313,-2.9315,-2.9426,-2.9426,-2.9427,-2.9483,-2.9484,-2.9485,-2.9477,-2.9476,-2.9474,-2.9473,-2.9534,-2.9537,-2.954,0,0,0,0,0,0,0,0,0,0,0,0,0,-2.9365,-2.9316,-2.9425,-2.943,-2.9431,-2.9483,-2.9484,-2.9485,-2.9477,-2.9476,-2.9474,-2.9473,-2.9533,-2.9537,-2.9541,-2.9593,0,0,-2.9552,-2.9554,0,0,0,0,0,0,0,0,-2.9362,-2.9369,-2.9428,-2.943,-2.9431,-2.9471,-2.9467,-2.9521,-2.9477,-2.946,-2.9474,-2.9472,-2.9515,-2.952,-2.9534,-2.9596,-2.9598,-2.9552,-2.9555,-2.9556,-2.9557,0,0,0,0,0,0,0,-2.9359,-2.9367,-2.9448,-2.9429,-2.9431,-2.943,-2.9436,-2.9477,-2.9495,-2.9461,-2.9461,-2.9467,-2.9515,-2.9531,-2.9536,-2.9599,-2.9552,-2.9556,-2.9558,-2.9559,-2.9708,-2.971,0,0,0,0,0,0,-2.9353,-2.9364,-2.9447,-2.945,-2.9392,-2.9433,-2.944,-2.946,-2.9494,-2.9498,-2.9469,-2.9467,-2.9525,-2.9531,-2.9538,-2.9602,-2.9556,-2.956,-2.9562,-2.9707,-2.9709,-2.9711,0,0,0,0,0,0,-2.9351,-2.9361,-2.9444,-2.9407,-2.9418,-2.9437,-2.9459,-2.9462,-2.9477,-2.95,-2.9503,-2.948,-2.9524,-2.9532,-2.9579,-2.9604,-2.9562,-2.9565,-2.9705,-2.9707,-2.971,-2.9729,0,0,0,0,0,0,-2.9348,-2.936,-2.9379,-2.9407,-2.942,-2.9484,-2.9461,-2.9464,-2.9483,-2.9481,-2.9512,-2.9516,-2.9523,-2.9574,-2.9583,-2.9608,-2.9568,-2.9703,-2.9706,-2.9709,-2.9727,-2.9732,-2.9737,0,0,0,0,0,-2.9344,-2.9382,-2.938,-2.939,-2.9443,-2.9485,-2.9492,-2.9499,-2.9485,-2.9505,-2.952,-2.9515,-2.96,-2.9579,-2.9589,-2.9615,-2.9701,-2.9705,-2.9709,-2.9724,-2.9731,-2.9737,0,0,0,0,0,0,-2.9356,-2.9386,-2.9383,-2.9432,-2.9456,-2.9483,-2.9508,-2.9506,-2.9535,-2.9532,-2.9542,-2.9549,-2.9596,-2.9611,-2.9587,-2.9669,-2.9649,-2.9655,-2.9657,-2.9664,-2.9669,-2.9664,-2.9571,0,0,0,0,0,-2.9364,-2.9395,-2.942,-2.946,-2.9472,-2.9489,-2.9507,-2.9511,-2.9536,-2.9546,-2.9565,-2.9591,-2.9624,-2.9645,-2.9676,-2.973,-2.9737,-2.9753,-2.9759,-2.9763,-2.9767,-2.9798,-2.9806,-2.9723,-2.9723,-2.9723,0,0,-2.9382,-2.9402,-2.942,-2.9463,-2.9482,-2.9514,-2.9497,-2.9531,-2.9556,-2.9552,-2.9597,-2.9612,-2.9642,-2.9693,-2.9716,-2.9706,-2.9793,-2.9768,-2.9771,-2.9773,-2.9803,-2.9811,-2.9818,-2.9726,-2.9725,-2.9725,0,0,-2.9429,-2.9448,-2.9484,-2.9504,-2.9533,-2.9544,-2.9553,-2.9581,-2.9591,-2.9637,-2.9635,-2.9665,-2.9721,-2.9742,-2.9761,-2.982,-2.9817,-2.9831,-2.9857,-2.9887,-2.9894,-2.9899,-2.9921,-2.9928,-2.9836,-2.9836,-2.9836,0,-2.9447,-2.9494,-2.9503,-2.9538,-2.9557,-2.9556,-2.9593,-2.9613,-2.9651,-2.9665,-2.9654,-2.9726,-2.9745,-2.9802,-2.9816,-2.9831,-2.9843,-2.9826,-2.9892,-2.9898,-2.9903,-2.9924,-2.9932,-2.9837,-2.9837,-2.9837,-2.9837,0,-2.9515,-2.9549,-2.9575,-2.9611,-2.9634,-2.967,-2.9685,-2.9708,-2.9711,-2.9724,-2.9772,-2.9796,-2.9833,-2.9847,-2.985,-2.9905,-2.9898,-2.989,-2.9869,-2.9913,-2.9932,-2.994,-2.9839,-2.9839,-2.9838,-2.9838,0,0,-2.9569,-2.9612,-2.9621,-2.9638,-2.9672,-2.9698,-2.9736,-2.9772,-2.9791,-2.9819,-2.9851,-2.99,-2.9893,-2.9914,-2.992,-2.9947,-2.9993,-2.9935,-2.9936,-2.9945,-3.0056,-3.0061,-3.0069,-2.9992,-2.9994,-2.9995,-3.0053,0,-2.962,-2.9684,-2.9694,-2.9751,-2.9783,-2.9784,-2.9817,-2.9842,-2.9856,-2.9886,-2.9902,-2.9937,-2.9925,-2.9938,-2.9964,-2.9982,-3.0015,-2.9978,-3.0023,-3.0024,-3.0013,-3.008,-3.0085,-3.0138,-3.0061,-3.0062,-3.0063,0,-2.9686,-2.9715,-2.9775,-2.9806,-2.982,-2.9849,-2.9884,-2.9913,-2.9942,-2.9951,-2.9976,-2.998,-3.0021,-3.0,-3.0057,-3.0032,-3.0051,-3.0064,-3.0066,-3.0069,-3.0045,-3.0084,-3.0155,-3.0162,-3.0075,-3.0074,-3.0073,0,-2.9718,-2.9773,-2.9817,-2.9832,-2.9869,-2.989,-2.9907,-2.9935,-2.9957,-2.9988,-3.0002,-3.0038,-3.0058,-3.0086,-3.0101,-3.0084,-3.0157,-3.0138,-3.0166,-3.0166,-3.018,-3.0178,-3.0254,-3.0194,-3.0194,-3.0194,-3.0194,0,-2.9773,-2.9809,-2.9832,-2.9858,-2.9901,-2.9913,-2.9955,-2.9972,-2.9998,-3.0029,-3.0033,-3.0062,-3.008,-3.0113,-3.0125,-3.0171,-3.018,-3.0189,-3.0191,-3.0188,-3.0186,-3.0199,-3.0195,-3.0196,-3.0196,-3.0195,-3.0195,0,-2.9815,-2.9831,-2.9879,-2.9911,-2.992,-2.995,-2.9978,-3.0005,-3.002,-3.006,-3.007,-3.0094,-3.0133,-3.0151,-3.0199,-3.0208,-3.026,-3.026,-3.0249,-3.025,-3.0277,-3.0274,-3.0362,-3.0375,-3.0308,-3.0309,-3.0309,0,-2.9847,-2.9876,-2.9912,-2.9932,-2.995,-2.9983,-3.0005,-3.002,-3.0044,-3.0081,-3.0104,-3.0143,-3.0175,-3.0238,-3.0261,-3.0298,-3.0299,-3.0328,-3.0305,-3.0301,-3.0299,-3.0297,-3.03,-3.0331,-3.0332,-3.0332,-3.0333,0,-2.9904,-2.9911,-2.9942,-2.9977,-3.0004,-3.0032,-3.006,-3.0078,-3.0098,-3.0124,-3.0164,-3.0189,-3.0239,-3.0278,-3.0318,-3.0337,-3.0339,-3.0341,-3.0349,-3.0345,-3.0337,-3.0341,-3.026,-3.0338,-3.0337,-3.0337,-3.0337,-3.0336,-2.9942,-2.9967,-2.9997,-3.0032,-3.0055,-3.0082,-3.0109,-3.0128,-3.0161,-3.0202,-3.021,-3.0253,-3.0285,-3.0338,-3.0359,-3.0394,-3.0387,-3.0399,-3.0402,-3.0405,-3.0406,-3.0333,-3.0401,-3.0401,-3.0401,-3.0401,-3.0401,0,-2.9997,-3.0017,-3.005,-3.0089,-3.0118,-3.0117,-3.0149,-3.0173,-3.021,-3.024,-3.0271,-3.0318,-3.0357,-3.0384,-3.0424,-3.0447,-3.0449,-3.0457,-3.0455,-3.0459,-3.041,-3.0398,-3.0455,-3.0455,-3.0455,-3.0455,-3.0455,-3.0455,-3.003,-3.0073,-3.0085,-3.0141,-3.0161,-3.0202,-3.022,-3.0246,-3.0269,-3.0321,-3.0353,-3.0371,-3.04,-3.0443,-3.0479,-3.0486,-3.0501,-3.0509,-3.0515,-3.0468,-3.0463,-3.0457,-3.0446,-3.0512,-3.0512,-3.0562,-3.0562,-3.0563]},{"header":{"parameterUnit":"m.s-1","parameterCategory":1,"la1":30.2991,"la2":30.254,"lo1":-89.0895,"lo2":-89.0444,"dy":0.0017,"dx":0.0017,"nx":28,"ny":28,"refTime":"2024-03-13T09:00:00:Z","depth":0,"parameterNumber":3,"parameterNumberName":"V-component_of_WINDS"},"data":[0,0,0,0,0,0,0,0,0,0,0,0,0,0,0,0,0,0,0,0,0,0,0,0,0,0,0,0,0,0,0,0,0,0,0,0,0,0,0,0,0,0,0,0,0,0,0,0,0,0,0,0,0,0,0,0,0,0,2.8434,2.8434,0,2.8382,2.8381,2.8381,2.8334,2.8333,2.8333,2.8332,2.8275,2.8274,2.8273,0,0,0,0,0,0,0,0,0,0,0,0,0,2.8493,2.8492,2.8435,2.8434,2.8433,2.8382,2.8381,2.8381,2.8334,2.8333,2.8333,2.8332,2.8275,2.8274,2.8273,0,0,0,0,0,0,0,0,0,0,0,0,0,2.8456,2.8492,2.8435,2.8404,2.8401,2.8382,2.8381,2.838,2.8334,2.8333,2.8332,2.8332,2.8276,2.8274,2.8273,2.828,0,0,2.8268,2.8268,0,0,0,0,0,0,0,0,2.8459,2.8454,2.8409,2.8406,2.8402,2.8364,2.8381,2.8347,2.8334,2.8359,2.8332,2.8331,2.8305,2.8301,2.8293,2.8277,2.8275,2.8268,2.8267,2.8267,2.8266,0,0,0,0,0,0,0,2.8461,2.8456,2.8414,2.8408,2.8404,2.8392,2.8386,2.8374,2.8337,2.8357,2.8353,2.8348,2.8303,2.8294,2.8291,2.8274,2.8268,2.8267,2.8266,2.8265,2.8263,2.8264,0,0,0,0,0,0,2.8469,2.8459,2.8415,2.8412,2.8429,2.8392,2.8385,2.8377,2.8337,2.833,2.8349,2.8346,2.8297,2.8293,2.8289,2.8296,2.8267,2.8265,2.8264,2.8262,2.8263,2.8264,0,0,0,0,0,0,2.847,2.8465,2.8417,2.8434,2.8427,2.8392,2.8383,2.8376,2.8368,2.8331,2.8324,2.8347,2.8297,2.8291,2.8283,2.8293,2.8264,2.8263,2.8261,2.8262,2.8263,2.8308,0,0,0,0,0,0,2.8472,2.8466,2.8469,2.8435,2.8427,2.8413,2.8383,2.8376,2.8366,2.8361,2.8328,2.8321,2.8296,2.8286,2.8282,2.829,2.8262,2.826,2.8262,2.8263,2.8306,2.8311,2.8315,0,0,0,0,0,2.8474,2.8482,2.8469,2.8464,2.8429,2.8414,2.8409,2.838,2.8367,2.8369,2.8346,2.8322,2.8293,2.8285,2.828,2.8289,2.8259,2.8261,2.8263,2.8304,2.831,2.8315,0,0,0,0,0,0,2.8516,2.8477,2.8462,2.8459,2.8441,2.8406,2.8407,2.8388,2.8371,2.8368,2.8332,2.8325,2.8321,2.8304,2.8296,2.8294,2.8273,2.8274,2.8306,2.8311,2.8316,2.832,2.8261,0,0,0,0,0,2.8526,2.8517,2.8483,2.8484,2.8475,2.8443,2.8435,2.8415,2.8394,2.8385,2.8361,2.834,2.8326,2.8318,2.8303,2.8303,2.8296,2.8307,2.8312,2.8316,2.8317,2.8318,2.8322,2.827,2.827,2.827,0,0,2.8544,2.8522,2.8518,2.8492,2.8475,2.8466,2.8437,2.8428,2.8422,2.8383,2.8375,2.8357,2.8331,2.8328,2.8325,2.8313,2.833,2.8318,2.8322,2.8321,2.832,2.8325,2.8329,2.8271,2.8271,2.8271,0,0,2.8574,2.8556,2.8555,2.854,2.8515,2.8494,2.8494,2.8462,2.845,2.8441,2.8412,2.8403,2.838,2.8364,2.8352,2.8378,2.8356,2.8374,2.8399,2.84,2.8404,2.8408,2.8418,2.8422,2.8375,2.8375,2.8376,0,2.8599,2.8586,2.8557,2.8552,2.8541,2.8508,2.8508,2.8493,2.8464,2.8458,2.8445,2.8417,2.8397,2.839,2.8397,2.8388,2.8387,2.8377,2.8406,2.8409,2.8412,2.8421,2.8425,2.8378,2.8378,2.8377,2.8377,0,2.862,2.8611,2.8614,2.8589,2.8579,2.8576,2.8546,2.8539,2.8521,2.8501,2.8493,2.8469,2.8449,2.8446,2.8427,2.8437,2.8431,2.8413,2.8391,2.842,2.8428,2.8431,2.8381,2.838,2.838,2.8379,0,0,2.8673,2.8634,2.8635,2.8625,2.8596,2.8588,2.8584,2.8566,2.8562,2.8543,2.8539,2.8521,2.8505,2.8492,2.8471,2.8472,2.8495,2.8453,2.8452,2.8463,2.8506,2.8521,2.8525,2.8481,2.8482,2.8482,2.8509,0,2.8698,2.869,2.8665,2.8664,2.8656,2.8625,2.8622,2.8603,2.8585,2.8576,2.8555,2.8544,2.8523,2.8515,2.8515,2.8493,2.8504,2.849,2.8477,2.8477,2.8485,2.8529,2.8544,2.857,2.8512,2.8512,2.8513,0,2.8726,2.8712,2.8711,2.8684,2.868,2.8678,2.866,2.8652,2.8631,2.8617,2.8605,2.8582,2.8576,2.8556,2.8547,2.8539,2.8532,2.852,2.8521,2.8518,2.8497,2.8529,2.8578,2.8582,2.8517,2.8517,2.8517,0,2.8767,2.8747,2.8744,2.8736,2.8704,2.8703,2.869,2.8668,2.866,2.8645,2.8639,2.8623,2.8614,2.8602,2.8575,2.8563,2.857,2.8547,2.8559,2.856,2.8562,2.8562,2.8611,2.8557,2.8557,2.8557,2.8557,0,2.8798,2.8798,2.8762,2.8761,2.8761,2.8732,2.8733,2.8716,2.8698,2.8692,2.8664,2.8659,2.8625,2.8616,2.8595,2.8592,2.8588,2.8577,2.8572,2.858,2.8582,2.8575,2.8573,2.8558,2.8558,2.8557,2.8557,0,2.8843,2.8818,2.8814,2.8785,2.8778,2.8779,2.8755,2.8752,2.8733,2.8727,2.8723,2.8693,2.8682,2.8655,2.8635,2.8622,2.8624,2.8614,2.8632,2.8628,2.8642,2.8642,2.8689,2.8694,2.8636,2.8637,2.8637,0,2.8864,2.8864,2.8837,2.8832,2.882,2.8812,2.8804,2.8776,2.8769,2.8746,2.8746,2.8733,2.8721,2.8705,2.8681,2.8666,2.8656,2.8673,2.8653,2.8662,2.8657,2.8658,2.8658,2.8678,2.8679,2.8679,2.868,0,2.8905,2.8894,2.8884,2.8871,2.8862,2.885,2.8836,2.8833,2.8802,2.8795,2.8784,2.8775,2.8757,2.8744,2.8727,2.8712,2.8691,2.8687,2.8689,2.8697,2.8708,2.8704,2.8645,2.8685,2.8685,2.8684,2.8684,2.8684,2.894,2.8939,2.892,2.8911,2.8898,2.8886,2.8882,2.8864,2.8855,2.8839,2.8822,2.8814,2.8794,2.8768,2.8756,2.8748,2.8737,2.874,2.8741,2.8742,2.8747,2.871,2.8745,2.8745,2.8744,2.8744,2.8744,0,2.898,2.8967,2.8959,2.8941,2.8934,2.8916,2.89,2.8895,2.8888,2.8872,2.8862,2.885,2.8838,2.8814,2.88,2.8799,2.8789,2.8796,2.8796,2.8794,2.8757,2.8757,2.8805,2.8805,2.8805,2.8805,2.8805,2.8805,2.9001,2.8999,2.8986,2.8978,2.8965,2.8957,2.895,2.8939,2.8926,2.8915,2.8906,2.8891,2.8872,2.8857,2.8845,2.8839,2.8835,2.8846,2.8836,2.8802,2.8796,2.8791,2.8791,2.8845,2.8845,2.8874,2.8874,2.8875]}]]